FENGYUN 1C DEB, 30123

Orbit data source: Space-Track

FENGYUN 1C DEB, 30123 is space debris in SSO originally from a launch on Mon, 10 May 1999 UTC launched from the Taiyaun Space Center, China (TSC). Fengyun 1C debris stems from the Chinese weather satellite Fengyun-1C, which was intentionally destroyed by a Chinese anti-satellite missile in 2007. This event dramatically increased the amount of space debris, with thousands of trackable fragments posing hazards to satellites and human spaceflight. The Fengyun 1C debris cloud has become a focal point in discussions about space sustainability and the need for international regulations to prevent the creation of new debris.

Loading next visibility...
Identifier
30123, 1999-025SC
Orbit
SSO
Country
Flag of CNCN / PRC
Related business
Manufacturer
Unknown
Mission
Spacecraft
Bus & Motor
Unknown
Mass
Unknown
Launch date (UTC)
1999-05-10 (27 years ago)
Launch vehicle
Unknown
Launch site
Taiyaun Space Center, China (TSC)
Object type
Payload
Rocket body
Debris
Shape & HBR
Unknown shape, 0.1 m
Radar Cross Section
Medium (>0.1 m² and <1 m²)

Expand to show TLE details & history
Last TLE update: 10 hours ago

TLE from 10 hours ago
0 FENGYUN 1C DEB
1 30123U 99025SC  26208.99637299  .00003693  00000-0  11552-2 0  9993
2 30123  96.9268 107.6080 0226294 110.6393 251.9218 14.27432101  4862
Epoch: 2026-07-27T23:54Z
TLE epoch observation values (Epoch: 2026-07-27T23:54:46.626Z)
Latitude
0.00001°
Longitude
163.24179°
Altitude
857.013 km
Speed
7.396 km/s
True Right ascension
07h 10m 25s
True Declination
0° 00' 00"
Sunlit
Object was in daylight at epoch
Visualization orbit readout
Latitude
Unknown
Longitude
Unknown
Altitude
Unknown
Speed
Unknown
Apparent Right ascension
Unknown
Apparent Declination
Unknown
Sunlit
N/A
Visualization observer readout
Local Sidereal Time
23:25:16
Azimuth
Unknown
Elevation
Unknown
Doppler factor
Unknown
Orbital elements
Apogee altitude
959.774 km
Perigee altitude
635.018 km
Semi-major axis
7,175.533 km
Eccentricity
0.02263
Inclination
96.9268°
RAAN
107.608°
Arg. of periapsis
110.6393°
True anomaly
249.47887°
Mean anomaly
251.9218°
Eccentric anomaly
250.69811°
Mean motion
3.57077 °/min
Orbital period
100.82 mins
BSTAR
0.0011552
Loading maneuver chart data...
Computing Atmospheric mass density...

Documentation

Showing up to 5 results
|